Location: Christchurch
(43.5330°S, 172.6330°E)
Time: 23:40:24
(UTC+13:00)

H-2A R/B - Pass Details

Date: 24 January 2019
Orbit: 734 x 836 km, 98.3° (Epoch: 22 February)

Event Time Altitude Azimuth Distance (km) Brightness Sun altitude
Rises 22:34:36 0° 163° (SSE) 3,269 5.7 -14.0°
Reaches altitude 10° 22:37:00 10° 158° (SSE) 2,321 4.8 -14.3°
Maximum altitude 22:42:01 55° 80° (E) 905 2.1 -15.0°
Enters shadow 22:45:38 18° 6° (N) 1,788 3.4 -15.4°
